Time,TemperatureF,DewpointF,PressureIn,WindDirection,WindDirectionDegrees,WindSpeedMPH,WindSpeedGustMPH,Humidity,HourlyPrecipIn,Conditions,Clouds,dailyrainin,SoftwareType,DateUTC
2013-03-22 00:00:00,30.0,11.7,29.18,NW,315,8.0,10.0,46,0.00,,,0.00,meteohub,2013-03-22 04:00:00,
2013-03-22 00:02:00,30.0,11.7,29.17,North,0,6.0,11.0,46,0.00,,,0.00,meteohub,2013-03-22 04:02:00,
2013-03-22 00:07:00,29.8,11.7,29.17,NW,315,7.0,11.0,46,0.00,,,0.00,meteohub,2013-03-22 04:07:00,
2013-03-22 00:12:00,29.8,11.7,29.18,NW,315,8.0,11.0,46,0.00,,,0.00,meteohub,2013-03-22 04:12:00,
2013-03-22 00:17:00,29.8,11.7,29.18,North,0,6.0,9.0,46,0.00,,,0.00,meteohub,2013-03-22 04:17:00,
2013-03-22 00:22:00,29.7,11.5,29.18,NW,315,4.0,9.0,46,0.00,,,0.00,meteohub,2013-03-22 04:22:00,
2013-03-22 00:27:00,29.7,11.5,29.18,West,270,7.0,9.0,46,0.00,,,0.00,meteohub,2013-03-22 04:27:00,
2013-03-22 00:32:00,29.7,11.5,29.18,NW,315,9.0,9.0,46,0.00,,,0.00,meteohub,2013-03-22 04:32:00,
2013-03-22 00:37:00,29.5,11.7,29.18,NW,315,8.0,9.0,47,0.00,,,0.00,meteohub,2013-03-22 04:37:00,
2013-03-22 00:42:00,29.5,11.7,29.18,North,0,5.0,9.0,47,0.00,,,0.00,meteohub,2013-03-22 04:42:00,
2013-03-22 00:47:00,29.5,11.7,29.17,NW,315,4.0,9.0,47,0.00,,,0.00,meteohub,2013-03-22 04:47:00,
2013-03-22 00:53:00,29.3,11.5,29.18,NW,315,6.0,8.0,47,0.00,,,0.00,meteohub,2013-03-22 04:53:00,
2013-03-22 00:58:00,29.3,11.5,29.18,NW,315,4.0,8.0,47,0.00,,,0.00,meteohub,2013-03-22 04:58:00,
2013-03-22 01:03:00,29.3,12.0,29.18,West,270,5.0,8.0,48,0.00,,,0.00,meteohub,2013-03-22 05:03:00,
2013-03-22 01:08:00,29.5,12.2,29.18,NW,315,4.0,8.0,48,0.00,,,0.00,meteohub,2013-03-22 05:08:00,
2013-03-22 01:13:00,29.5,12.2,29.18,NW,315,7.0,8.0,48,0.00,,,0.00,meteohub,2013-03-22 05:13:00,
2013-03-22 01:18:00,29.5,12.2,29.18,West,270,7.0,8.0,48,0.00,,,0.00,meteohub,2013-03-22 05:18:00,
2013-03-22 01:23:00,29.3,12.6,29.18,NW,315,10.0,10.0,49,0.00,,,0.00,meteohub,2013-03-22 05:23:00,
2013-03-22 01:28:00,29.3,12.6,29.18,NW,315,4.0,10.0,49,0.00,,,0.00,meteohub,2013-03-22 05:28:00,
2013-03-22 01:33:00,29.3,12.6,29.19,West,270,6.0,10.0,49,0.00,,,0.00,meteohub,2013-03-22 05:33:00,
2013-03-22 01:38:00,29.3,12.6,29.18,West,270,6.0,10.0,49,0.00,,,0.00,meteohub,2013-03-22 05:38:00,
2013-03-22 01:43:00,29.3,12.6,29.19,West,270,5.0,11.0,49,0.00,,,0.00,meteohub,2013-03-22 05:43:00,
2013-03-22 01:48:00,29.1,12.7,29.18,West,270,6.0,11.0,50,0.00,,,0.00,meteohub,2013-03-22 05:48:00,
2013-03-22 01:53:00,29.1,12.7,29.18,West,270,11.0,11.0,50,0.00,,,0.00,meteohub,2013-03-22 05:53:00,
2013-03-22 01:58:00,29.1,13.3,29.18,North,0,7.0,11.0,51,0.00,,,0.00,meteohub,2013-03-22 05:58:00,
2013-03-22 02:03:00,29.1,13.3,29.19,NW,315,8.0,11.0,51,0.00,,,0.00,meteohub,2013-03-22 06:03:00,
2013-03-22 02:09:00,29.1,13.3,29.19,NW,315,12.0,12.0,51,0.00,,,0.00,meteohub,2013-03-22 06:09:00,
2013-03-22 02:14:00,29.1,13.6,29.18,North,0,4.0,12.0,52,0.00,,,0.00,meteohub,2013-03-22 06:14:00,
2013-03-22 02:19:00,28.9,13.5,29.19,North,0,7.0,13.0,52,0.00,,,0.00,meteohub,2013-03-22 06:19:00,
2013-03-22 02:24:00,28.9,13.5,29.18,North,0,4.0,13.0,52,0.00,,,0.00,meteohub,2013-03-22 06:24:00,
2013-03-22 02:29:00,28.9,14.0,29.19,North,0,8.0,13.0,53,0.00,,,0.00,meteohub,2013-03-22 06:29:00,
2013-03-22 02:34:00,28.9,14.0,29.18,North,0,9.0,9.0,53,0.00,,,0.00,meteohub,2013-03-22 06:34:00,
2013-03-22 02:39:00,28.9,14.4,29.19,North,0,16.0,16.0,54,0.00,,,0.00,meteohub,2013-03-22 06:39:00,
2013-03-22 02:44:00,28.8,14.2,29.19,NW,315,8.0,14.0,54,0.00,,,0.00,meteohub,2013-03-22 06:44:00,
2013-03-22 02:49:00,28.6,14.5,29.18,ENE,68,10.0,17.0,55,0.00,,,0.00,meteohub,2013-03-22 06:49:00,
2013-03-22 02:54:00,28.8,14.7,29.18,West,270,11.0,17.0,55,0.00,,,0.00,meteohub,2013-03-22 06:54:00,
2013-03-22 02:59:00,28.6,14.5,29.18,NW,315,5.0,14.0,55,0.00,,,0.00,meteohub,2013-03-22 06:59:00,
2013-03-22 03:04:00,28.6,14.5,29.18,NW,315,11.0,14.0,55,0.00,,,0.00,meteohub,2013-03-22 07:04:00,
2013-03-22 03:09:00,28.4,14.4,29.18,West,270,9.0,11.0,55,0.00,,,0.00,meteohub,2013-03-22 07:09:00,
2013-03-22 03:14:00,28.4,14.4,29.18,NW,315,8.0,11.0,55,0.00,,,0.00,meteohub,2013-03-22 07:14:00,
2013-03-22 03:20:00,28.4,14.4,29.17,NW,315,9.0,11.0,55,0.00,,,0.00,meteohub,2013-03-22 07:20:00,
2013-03-22 03:25:00,28.2,12.4,29.18,NW,315,4.0,13.0,51,0.00,,,0.00,meteohub,2013-03-22 07:25:00,
2013-03-22 03:30:00,28.2,12.4,29.18,North,0,12.0,13.0,51,0.00,,,0.00,meteohub,2013-03-22 07:30:00,
2013-03-22 03:35:00,28.0,12.2,29.18,North,0,11.0,15.0,51,0.00,,,0.00,meteohub,2013-03-22 07:35:00,
2013-03-22 03:40:00,28.0,12.2,29.18,North,0,8.0,15.0,51,0.00,,,0.00,meteohub,2013-03-22 07:40:00,
2013-03-22 03:45:00,28.0,12.2,29.18,NW,315,5.0,13.0,51,0.00,,,0.00,meteohub,2013-03-22 07:45:00,
2013-03-22 03:50:00,27.9,12.0,29.18,NW,315,8.0,13.0,51,0.00,,,0.00,meteohub,2013-03-22 07:50:00,
2013-03-22 03:55:00,27.9,12.0,29.17,NW,315,6.0,13.0,51,0.00,,,0.00,meteohub,2013-03-22 07:55:00,
2013-03-22 04:00:00,27.7,11.8,29.18,West,270,7.0,15.0,51,0.00,,,0.00,meteohub,2013-03-22 08:00:00,
2013-03-22 04:05:00,27.5,11.7,29.17,NW,315,11.0,15.0,51,0.00,,,0.00,meteohub,2013-03-22 08:05:00,
2013-03-22 04:10:00,27.5,11.7,29.17,WNW,293,7.0,15.0,51,0.00,,,0.00,meteohub,2013-03-22 08:10:00,
2013-03-22 04:15:00,27.3,11.7,29.17,West,270,4.0,11.0,51,0.00,,,0.00,meteohub,2013-03-22 08:15:00,
2013-03-22 04:20:00,27.1,11.5,29.17,NW,315,10.0,11.0,51,0.00,,,0.00,meteohub,2013-03-22 08:20:00,
2013-03-22 04:25:00,27.1,11.5,29.18,NW,315,11.0,11.0,51,0.00,,,0.00,meteohub,2013-03-22 08:25:00,
2013-03-22 04:31:00,27.0,11.3,29.18,West,270,8.0,11.0,51,0.00,,,0.00,meteohub,2013-03-22 08:31:00,
2013-03-22 04:36:00,27.0,11.3,29.18,North,0,12.0,12.0,51,0.00,,,0.00,meteohub,2013-03-22 08:36:00,
2013-03-22 04:41:00,26.8,11.1,29.18,NW,315,10.0,12.0,51,0.00,,,0.00,meteohub,2013-03-22 08:41:00,
2013-03-22 04:46:00,26.8,11.1,29.18,North,0,6.0,12.0,51,0.00,,,0.00,meteohub,2013-03-22 08:46:00,
2013-03-22 04:51:00,26.6,10.9,29.18,North,0,8.0,12.0,51,0.00,,,0.00,meteohub,2013-03-22 08:51:00,
2013-03-22 04:57:00,26.6,10.9,29.18,NW,315,3.0,10.0,51,0.00,,,0.00,meteohub,2013-03-22 08:57:00,
2013-03-22 05:02:00,26.4,11.1,29.18,NW,315,5.0,10.0,52,0.00,,,0.00,meteohub,2013-03-22 09:02:00,
2013-03-22 05:07:00,26.4,11.1,29.18,NW,315,4.0,12.0,52,0.00,,,0.00,meteohub,2013-03-22 09:07:00,
2013-03-22 05:12:00,26.2,10.9,29.18,NW,315,8.0,14.0,52,0.00,,,0.00,meteohub,2013-03-22 09:12:00,
2013-03-22 05:17:00,26.1,10.8,29.18,NW,315,8.0,14.0,52,0.00,,,0.00,meteohub,2013-03-22 09:17:00,
2013-03-22 05:22:00,26.1,10.8,29.18,North,0,8.0,14.0,52,0.00,,,0.00,meteohub,2013-03-22 09:22:00,
2013-03-22 05:27:00,25.9,10.8,29.18,North,0,7.0,11.0,52,0.00,,,0.00,meteohub,2013-03-22 09:27:00,
2013-03-22 05:32:00,25.7,10.6,29.18,West,270,7.0,11.0,52,0.00,,,0.00,meteohub,2013-03-22 09:32:00,
2013-03-22 05:37:00,25.7,10.6,29.18,NW,315,7.0,11.0,52,0.00,,,0.00,meteohub,2013-03-22 09:37:00,
2013-03-22 05:42:00,25.7,10.6,29.18,North,0,8.0,11.0,52,0.00,,,0.00,meteohub,2013-03-22 09:42:00,
2013-03-22 05:47:00,25.7,10.6,29.18,NW,315,5.0,12.0,52,0.00,,,0.00,meteohub,2013-03-22 09:47:00,
2013-03-22 05:52:00,25.5,10.4,29.18,NW,315,6.0,12.0,52,0.00,,,0.00,meteohub,2013-03-22 09:52:00,
2013-03-22 05:57:00,25.5,10.4,29.19,NW,315,7.0,12.0,52,0.00,,,0.00,meteohub,2013-03-22 09:57:00,
2013-03-22 06:03:00,25.5,10.4,29.19,NW,315,8.0,10.0,52,0.00,,,0.00,meteohub,2013-03-22 10:03:00,
2013-03-22 06:08:00,25.3,10.2,29.19,West,270,8.0,11.0,52,0.00,,,0.00,meteohub,2013-03-22 10:08:00,
2013-03-22 06:13:00,25.2,10.0,29.19,West,270,8.0,11.0,52,0.00,,,0.00,meteohub,2013-03-22 10:13:00,
2013-03-22 06:18:00,25.2,10.0,29.20,NW,315,7.0,11.0,52,0.00,,,0.00,meteohub,2013-03-22 10:18:00,
2013-03-22 06:23:00,25.0,9.3,29.19,NW,315,11.0,11.0,51,0.00,,,0.00,meteohub,2013-03-22 10:23:00,
2013-03-22 06:28:00,25.0,9.3,29.19,NW,315,9.0,11.0,51,0.00,,,0.00,meteohub,2013-03-22 10:28:00,
2013-03-22 06:33:00,25.0,9.3,29.20,NW,315,8.0,12.0,51,0.00,,,0.00,meteohub,2013-03-22 10:33:00,
2013-03-22 06:38:00,25.0,9.0,29.20,West,270,8.0,12.0,50,0.00,,,0.00,meteohub,2013-03-22 10:38:00,
2013-03-22 06:43:00,24.8,8.8,29.20,West,270,5.0,12.0,50,0.00,,,0.00,meteohub,2013-03-22 10:43:00,
2013-03-22 06:48:00,24.8,9.3,29.20,North,0,8.0,11.0,51,0.00,,,0.00,meteohub,2013-03-22 10:48:00,
2013-03-22 06:53:00,24.6,9.5,29.20,NW,315,9.0,11.0,52,0.00,,,0.00,meteohub,2013-03-22 10:53:00,
2013-03-22 06:58:00,24.4,9.3,29.20,NW,315,9.0,11.0,52,0.00,,,0.00,meteohub,2013-03-22 10:58:00,
2013-03-22 07:03:00,24.4,9.3,29.20,NW,315,10.0,11.0,52,0.00,,,0.00,meteohub,2013-03-22 11:03:00,
2013-03-22 07:08:00,24.4,9.7,29.21,NW,315,10.0,11.0,53,0.00,,,0.00,meteohub,2013-03-22 11:08:00,
2013-03-22 07:13:00,24.4,9.3,29.21,North,0,9.0,11.0,52,0.00,,,0.00,meteohub,2013-03-22 11:13:00,
2013-03-22 07:18:00,24.8,9.3,29.21,NW,315,6.0,11.0,51,0.00,,,0.00,meteohub,2013-03-22 11:18:00,
2013-03-22 07:23:00,25.5,9.5,29.21,East,90,6.0,10.0,50,0.00,,,0.00,meteohub,2013-03-22 11:23:00,
2013-03-22 07:28:00,25.5,9.0,29.22,North,0,8.0,11.0,49,0.00,,,0.00,meteohub,2013-03-22 11:28:00,
2013-03-22 07:34:00,26.2,9.1,29.22,NW,315,8.0,11.0,48,0.00,,,0.00,meteohub,2013-03-22 11:34:00,
2013-03-22 07:39:00,26.8,8.8,29.22,NW,315,9.0,13.0,46,0.00,,,0.00,meteohub,2013-03-22 11:39:00,
2013-03-22 07:44:00,27.5,9.0,29.22,North,0,4.0,13.0,45,0.00,,,0.00,meteohub,2013-03-22 11:44:00,
2013-03-22 07:49:00,28.0,9.0,29.22,North,0,8.0,11.0,44,0.00,,,0.00,meteohub,2013-03-22 11:49:00,
2013-03-22 07:54:00,28.0,9.0,29.23,North,0,8.0,14.0,44,0.00,,,0.00,meteohub,2013-03-22 11:54:00,
2013-03-22 07:59:00,27.9,8.2,29.23,North,0,10.0,14.0,43,0.00,,,0.00,meteohub,2013-03-22 11:59:00,
2013-03-22 08:04:00,29.3,11.5,29.23,NW,315,11.0,14.0,47,0.00,,,0.00,meteohub,2013-03-22 12:04:00,
2013-03-22 08:09:00,29.5,11.7,29.24,North,0,8.0,12.0,47,0.00,,,0.00,meteohub,2013-03-22 12:09:00,
2013-03-22 08:14:00,28.6,10.4,29.24,West,270,8.0,12.0,46,0.00,,,0.00,meteohub,2013-03-22 12:14:00,
2013-03-22 08:19:00,28.4,10.2,29.24,North,0,4.0,15.0,46,0.00,,,0.00,meteohub,2013-03-22 12:19:00,
2013-03-22 08:25:00,28.4,10.2,29.24,WNW,293,5.0,15.0,46,0.00,,,0.00,meteohub,2013-03-22 12:25:00,
2013-03-22 08:30:00,28.6,10.4,29.24,WNW,293,8.0,15.0,46,0.00,,,0.00,meteohub,2013-03-22 12:30:00,
2013-03-22 08:35:00,28.9,10.8,29.23,NW,315,13.0,15.0,46,0.00,,,0.00,meteohub,2013-03-22 12:35:00,
2013-03-22 08:40:00,29.5,11.3,29.24,North,0,6.0,15.0,46,0.00,,,0.00,meteohub,2013-03-22 12:40:00,
2013-03-22 08:45:00,32.0,12.0,29.24,North,0,2.0,15.0,43,0.00,,,0.00,meteohub,2013-03-22 12:45:00,
2013-03-22 08:50:00,32.0,12.0,29.24,West,270,9.0,15.0,43,0.00,,,0.00,meteohub,2013-03-22 12:50:00,
2013-03-22 08:55:00,30.9,11.1,29.24,North,0,11.0,11.0,43,0.00,,,0.00,meteohub,2013-03-22 12:55:00,
2013-03-22 09:00:00,30.7,11.5,29.24,NW,315,12.0,15.0,44,0.00,,,0.00,meteohub,2013-03-22 13:00:00,
2013-03-22 09:05:00,32.0,12.0,29.24,WNW,293,5.0,15.0,43,0.00,,,0.00,meteohub,2013-03-22 13:05:00,
2013-03-22 09:11:00,33.3,12.0,29.24,NW,315,8.0,15.0,41,0.00,,,0.00,meteohub,2013-03-22 13:11:00,
2013-03-22 09:16:00,33.3,11.5,29.24,North,0,8.0,12.0,40,0.00,,,0.00,meteohub,2013-03-22 13:16:00,
2013-03-22 09:21:00,33.1,10.8,29.24,North,0,6.0,11.0,39,0.00,,,0.00,meteohub,2013-03-22 13:21:00,
2013-03-22 09:26:00,32.4,10.8,29.24,NW,315,4.0,11.0,40,0.00,,,0.00,meteohub,2013-03-22 13:26:00,
2013-03-22 09:31:00,33.1,10.8,29.25,NW,315,5.0,11.0,39,0.00,,,0.00,meteohub,2013-03-22 13:31:00,
2013-03-22 09:36:00,32.5,10.4,29.25,NW,315,10.0,10.0,39,0.00,,,0.00,meteohub,2013-03-22 13:36:00,
2013-03-22 09:41:00,32.7,11.1,29.25,West,270,8.0,13.0,40,0.00,,,0.00,meteohub,2013-03-22 13:41:00,
2013-03-22 09:46:00,32.2,10.0,29.25,NW,315,6.0,13.0,39,0.00,,,0.00,meteohub,2013-03-22 13:46:00,
2013-03-22 09:52:00,32.9,11.3,29.25,NW,315,4.0,12.0,40,0.00,,,0.00,meteohub,2013-03-22 13:52:00,
2013-03-22 09:57:00,34.0,11.1,29.25,NW,315,8.0,12.0,38,0.00,,,0.00,meteohub,2013-03-22 13:57:00,
2013-03-22 10:02:00,33.8,10.9,29.25,NW,315,10.0,11.0,38,0.00,,,0.00,meteohub,2013-03-22 14:02:00,
2013-03-22 10:07:00,34.0,11.1,29.25,NW,315,5.0,12.0,38,0.00,,,0.00,meteohub,2013-03-22 14:07:00,
2013-03-22 10:12:00,35.1,10.8,29.25,NW,315,8.0,12.0,36,0.00,,,0.00,meteohub,2013-03-22 14:12:00,
2013-03-22 10:17:00,35.2,10.9,29.25,NW,315,11.0,12.0,36,0.00,,,0.00,meteohub,2013-03-22 14:17:00,
2013-03-22 10:22:00,35.1,10.8,29.24,North,0,6.0,12.0,36,0.00,,,0.00,meteohub,2013-03-22 14:22:00,
2013-03-22 10:27:00,34.9,10.6,29.24,NW,315,5.0,12.0,36,0.00,,,0.00,meteohub,2013-03-22 14:27:00,
2013-03-22 10:32:00,35.8,10.8,29.25,East,90,11.0,14.0,35,0.00,,,0.00,meteohub,2013-03-22 14:32:00,
2013-03-22 10:37:00,35.6,9.3,29.25,NW,315,8.0,14.0,33,0.00,,,0.00,meteohub,2013-03-22 14:37:00,
2013-03-22 10:42:00,35.4,10.4,29.25,West,270,8.0,15.0,35,0.00,,,0.00,meteohub,2013-03-22 14:42:00,
2013-03-22 10:47:00,37.0,11.3,29.25,North,0,4.0,15.0,34,0.00,,,0.00,meteohub,2013-03-22 14:47:00,
2013-03-22 10:52:00,36.3,10.0,29.24,West,270,11.0,15.0,33,0.00,,,0.00,meteohub,2013-03-22 14:52:00,
2013-03-22 10:58:00,35.6,10.0,29.24,NW,315,11.0,11.0,34,0.00,,,0.00,meteohub,2013-03-22 14:58:00,
2013-03-22 11:03:00,35.8,9.5,29.25,North,0,8.0,11.0,33,0.00,,,0.00,meteohub,2013-03-22 15:03:00,
2013-03-22 11:08:00,37.2,11.5,29.24,NW,315,5.0,12.0,34,0.00,,,0.00,meteohub,2013-03-22 15:08:00,
2013-03-22 11:13:00,37.9,13.3,29.24,West,270,8.0,12.0,36,0.00,,,0.00,meteohub,2013-03-22 15:13:00,
2013-03-22 11:18:00,37.6,13.1,29.25,West,270,7.0,12.0,36,0.00,,,0.00,meteohub,2013-03-22 15:18:00,
2013-03-22 11:23:00,37.4,12.9,29.25,NE,45,5.0,11.0,36,0.00,,,0.00,meteohub,2013-03-22 15:23:00,
2013-03-22 11:28:00,37.6,13.6,29.25,SW,225,9.0,11.0,37,0.00,,,0.00,meteohub,2013-03-22 15:28:00,
2013-03-22 11:33:00,36.9,10.4,29.25,North,0,11.0,11.0,33,0.00,,,0.00,meteohub,2013-03-22 15:33:00,
2013-03-22 11:38:00,36.9,10.4,29.24,West,270,8.0,12.0,33,0.00,,,0.00,meteohub,2013-03-22 15:38:00,
2013-03-22 11:43:00,37.6,14.2,29.24,East,90,4.0,12.0,38,0.00,,,0.00,meteohub,2013-03-22 15:43:00,
2013-03-22 11:48:00,38.5,14.5,29.24,NW,315,7.0,12.0,37,0.00,,,0.00,meteohub,2013-03-22 15:48:00,
2013-03-22 11:53:00,38.7,14.0,29.24,NW,315,5.0,11.0,36,0.00,,,0.00,meteohub,2013-03-22 15:53:00,
2013-03-22 11:58:00,38.3,13.6,29.24,NW,315,16.0,16.0,36,0.00,,,0.00,meteohub,2013-03-22 15:58:00,
2013-03-22 12:04:00,37.6,13.6,29.24,NE,45,4.0,16.0,37,0.00,,,0.00,meteohub,2013-03-22 16:04:00,
2013-03-22 12:09:00,39.7,14.4,29.24,NW,315,8.0,17.0,35,0.00,,,0.00,meteohub,2013-03-22 16:09:00,
2013-03-22 12:14:00,38.7,14.5,29.24,ENE,68,11.0,17.0,37,0.00,,,0.00,meteohub,2013-03-22 16:14:00,
2013-03-22 12:19:00,39.0,14.9,29.24,NW,315,14.0,14.0,37,0.00,,,0.00,meteohub,2013-03-22 16:19:00,
2013-03-22 12:24:00,37.8,13.8,29.23,North,0,4.0,11.0,37,0.00,,,0.00,meteohub,2013-03-22 16:24:00,
2013-03-22 12:29:00,37.6,13.1,29.23,NW,315,4.0,14.0,36,0.00,,,0.00,meteohub,2013-03-22 16:29:00,
2013-03-22 12:34:00,36.5,10.0,29.23,North,0,8.0,14.0,33,0.00,,,0.00,meteohub,2013-03-22 16:34:00,
2013-03-22 12:39:00,37.8,14.4,29.23,NW,315,9.0,14.0,38,0.00,,,0.00,meteohub,2013-03-22 16:39:00,
2013-03-22 12:44:00,38.5,14.5,29.23,SW,225,10.0,11.0,37,0.00,,,0.00,meteohub,2013-03-22 16:44:00,
2013-03-22 12:49:00,38.1,14.2,29.23,NW,315,7.0,11.0,37,0.00,,,0.00,meteohub,2013-03-22 16:49:00,
2013-03-22 12:54:00,39.6,14.7,29.23,NW,315,4.0,11.0,36,0.00,,,0.00,meteohub,2013-03-22 16:54:00,
2013-03-22 12:59:00,38.7,14.0,29.23,West,270,9.0,11.0,36,0.00,,,0.00,meteohub,2013-03-22 16:59:00,
2013-03-22 13:04:00,38.8,14.7,29.23,NW,315,10.0,14.0,37,0.00,,,0.00,meteohub,2013-03-22 17:04:00,
2013-03-22 13:09:00,40.3,14.7,29.23,NW,315,11.0,14.0,35,0.00,,,0.00,meteohub,2013-03-22 17:09:00,
2013-03-22 13:14:00,38.8,13.5,29.22,WNW,293,9.0,14.0,35,0.00,,,0.00,meteohub,2013-03-22 17:14:00,
2013-03-22 13:19:00,40.3,14.7,29.23,NW,315,11.0,15.0,35,0.00,,,0.00,meteohub,2013-03-22 17:19:00,
2013-03-22 13:25:00,39.4,14.0,29.23,NW,315,12.0,15.0,35,0.00,,,0.00,meteohub,2013-03-22 17:25:00,
2013-03-22 13:30:00,37.4,13.5,29.23,West,270,5.0,15.0,37,0.00,,,0.00,meteohub,2013-03-22 17:30:00,
2013-03-22 13:35:00,38.5,15.1,29.22,North,0,5.0,15.0,38,0.00,,,0.00,meteohub,2013-03-22 17:35:00,
2013-03-22 13:40:00,38.3,14.9,29.22,West,270,13.0,15.0,38,0.00,,,0.00,meteohub,2013-03-22 17:40:00,
2013-03-22 13:45:00,37.4,14.2,29.22,NW,315,9.0,15.0,38,0.00,,,0.00,meteohub,2013-03-22 17:45:00,
2013-03-22 13:50:00,37.0,12.6,29.22,NW,315,9.0,15.0,36,0.00,,,0.00,meteohub,2013-03-22 17:50:00,
2013-03-22 13:55:00,37.0,12.6,29.22,SW,225,8.0,21.0,36,0.00,,,0.00,meteohub,2013-03-22 17:55:00,
2013-03-22 14:00:00,37.6,15.4,29.22,North,0,8.0,21.0,40,0.00,,,0.00,meteohub,2013-03-22 18:00:00,
2013-03-22 14:05:00,38.8,16.0,29.22,NW,315,6.0,15.0,39,0.00,,,0.00,meteohub,2013-03-22 18:05:00,
2013-03-22 14:10:00,39.9,15.1,29.21,NW,315,13.0,13.0,36,0.00,,,0.00,meteohub,2013-03-22 18:10:00,
2013-03-22 14:15:00,38.1,14.7,29.22,WNW,293,8.0,17.0,38,0.00,,,0.00,meteohub,2013-03-22 18:15:00,
2013-03-22 14:20:00,37.2,12.0,29.22,SW,225,18.0,18.0,35,0.00,,,0.00,meteohub,2013-03-22 18:20:00,
2013-03-22 14:26:00,37.6,16.5,29.22,West,270,4.0,18.0,42,0.00,,,0.00,meteohub,2013-03-22 18:26:00,
2013-03-22 14:31:00,37.8,15.6,29.21,SW,225,4.0,18.0,40,0.00,,,0.00,meteohub,2013-03-22 18:31:00,
2013-03-22 14:36:00,37.9,14.5,29.21,NW,315,5.0,18.0,38,0.00,,,0.00,meteohub,2013-03-22 18:36:00,
2013-03-22 14:41:00,39.0,14.9,29.21,NW,315,11.0,12.0,37,0.00,,,0.00,meteohub,2013-03-22 18:41:00,
2013-03-22 14:46:00,41.4,13.6,29.21,NW,315,15.0,15.0,32,0.00,,,0.00,meteohub,2013-03-22 18:46:00,
2013-03-22 14:51:00,40.3,11.3,29.21,NW,315,10.0,18.0,30,0.00,,,0.00,meteohub,2013-03-22 18:51:00,
2013-03-22 14:57:00,40.3,12.0,29.21,NW,315,11.0,18.0,31,0.00,,,0.00,meteohub,2013-03-22 18:57:00,
2013-03-22 15:02:00,41.0,11.1,29.21,NW,315,11.0,18.0,29,0.00,,,0.00,meteohub,2013-03-22 19:02:00,
2013-03-22 15:07:00,40.8,11.8,29.21,West,270,14.0,17.0,30,0.00,,,0.00,meteohub,2013-03-22 19:07:00,
2013-03-22 15:12:00,40.5,12.9,29.21,North,0,14.0,16.0,32,0.00,,,0.00,meteohub,2013-03-22 19:12:00,
2013-03-22 15:17:00,39.0,12.4,29.21,West,270,11.0,20.0,33,0.00,,,0.00,meteohub,2013-03-22 19:17:00,
2013-03-22 15:22:00,38.8,12.2,29.21,West,270,10.0,20.0,33,0.00,,,0.00,meteohub,2013-03-22 19:22:00,
2013-03-22 15:27:00,39.2,13.1,29.21,West,270,8.0,20.0,34,0.00,,,0.00,meteohub,2013-03-22 19:27:00,
2013-03-22 15:32:00,39.6,12.7,29.21,NE,45,7.0,17.0,33,0.00,,,0.00,meteohub,2013-03-22 19:32:00,
2013-03-22 15:37:00,40.5,13.6,29.21,ESE,113,6.0,16.0,33,0.00,,,0.00,meteohub,2013-03-22 19:37:00,
2013-03-22 15:42:00,41.7,14.0,29.21,NW,315,8.0,16.0,32,0.00,,,0.00,meteohub,2013-03-22 19:42:00,
2013-03-22 15:47:00,40.5,12.9,29.21,WNW,293,14.0,17.0,32,0.00,,,0.00,meteohub,2013-03-22 19:47:00,
2013-03-22 15:52:00,39.7,13.6,29.21,West,270,9.0,17.0,34,0.00,,,0.00,meteohub,2013-03-22 19:52:00,
2013-03-22 15:57:00,39.7,14.4,29.21,South,180,16.0,17.0,35,0.00,,,0.00,meteohub,2013-03-22 19:57:00,
2013-03-22 16:02:00,38.3,14.4,29.21,NW,315,12.0,16.0,37,0.00,,,0.00,meteohub,2013-03-22 20:02:00,
2013-03-22 16:07:00,37.6,14.2,29.21,WNW,293,10.0,16.0,38,0.00,,,0.00,meteohub,2013-03-22 20:07:00,
2013-03-22 16:13:00,37.6,14.2,29.21,West,270,6.0,16.0,38,0.00,,,0.00,meteohub,2013-03-22 20:13:00,
2013-03-22 16:18:00,37.8,15.1,29.21,NW,315,4.0,13.0,39,0.00,,,0.00,meteohub,2013-03-22 20:18:00,
2013-03-22 16:23:00,37.8,15.1,29.21,West,270,8.0,11.0,39,0.00,,,0.00,meteohub,2013-03-22 20:23:00,
2013-03-22 16:28:00,37.4,14.7,29.21,NW,315,16.0,16.0,39,0.00,,,0.00,meteohub,2013-03-22 20:28:00,
2013-03-22 16:33:00,36.9,13.6,29.22,NW,315,17.0,17.0,38,0.00,,,0.00,meteohub,2013-03-22 20:33:00,
2013-03-22 16:38:00,36.9,15.4,29.21,SE,135,11.0,17.0,41,0.00,,,0.00,meteohub,2013-03-22 20:38:00,
2013-03-22 16:43:00,37.0,15.4,29.22,NW,315,11.0,19.0,41,0.00,,,0.00,meteohub,2013-03-22 20:43:00,
2013-03-22 16:48:00,36.7,15.3,29.22,NE,45,8.0,19.0,41,0.00,,,0.00,meteohub,2013-03-22 20:48:00,
2013-03-22 16:53:00,36.7,15.3,29.22,NW,315,17.0,19.0,41,0.00,,,0.00,meteohub,2013-03-22 20:53:00,
2013-03-22 16:58:00,36.3,15.4,29.23,NW,315,15.0,17.0,42,0.00,,,0.00,meteohub,2013-03-22 20:58:00,
2013-03-22 17:03:00,35.8,17.1,29.23,NE,45,16.0,17.0,46,0.00,,,0.00,meteohub,2013-03-22 21:03:00,
2013-03-22 17:09:00,36.1,17.8,29.23,NW,315,7.0,19.0,47,0.00,,,0.00,meteohub,2013-03-22 21:09:00,
2013-03-22 17:14:00,37.8,20.8,29.22,NW,315,10.0,19.0,50,0.00,,,0.00,meteohub,2013-03-22 21:14:00,
2013-03-22 17:19:00,37.6,20.7,29.23,NW,315,9.0,19.0,50,0.00,,,0.00,meteohub,2013-03-22 21:19:00,
2013-03-22 17:24:00,36.5,17.6,29.23,NW,315,4.0,15.0,46,0.00,,,0.00,meteohub,2013-03-22 21:24:00,
2013-03-22 17:29:00,36.3,18.0,29.23,West,270,5.0,15.0,47,0.00,,,0.00,meteohub,2013-03-22 21:29:00,
2013-03-22 17:34:00,36.3,17.6,29.23,West,270,8.0,15.0,46,0.00,,,0.00,meteohub,2013-03-22 21:34:00,
2013-03-22 17:39:00,36.0,16.7,29.23,NW,315,9.0,11.0,45,0.00,,,0.00,meteohub,2013-03-22 21:39:00,
2013-03-22 17:44:00,36.0,16.7,29.23,WNW,293,9.0,12.0,45,0.00,,,0.00,meteohub,2013-03-22 21:44:00,
2013-03-22 17:49:00,36.0,16.2,29.23,West,270,12.0,12.0,44,0.00,,,0.00,meteohub,2013-03-22 21:49:00,
2013-03-22 17:54:00,36.1,16.3,29.23,NW,315,4.0,12.0,44,0.00,,,0.00,meteohub,2013-03-22 21:54:00,
2013-03-22 17:59:00,36.0,16.2,29.24,West,270,11.0,12.0,44,0.00,,,0.00,meteohub,2013-03-22 21:59:00,
2013-03-22 18:05:00,36.0,16.2,29.23,NW,315,5.0,12.0,44,0.00,,,0.00,meteohub,2013-03-22 22:05:00,
2013-03-22 18:10:00,36.0,16.2,29.23,NW,315,7.0,12.0,44,0.00,,,0.00,meteohub,2013-03-22 22:10:00,
2013-03-22 18:15:00,36.5,16.2,29.23,West,270,11.0,15.0,43,0.00,,,0.00,meteohub,2013-03-22 22:15:00,
2013-03-22 18:20:00,36.5,16.2,29.24,West,270,8.0,15.0,43,0.00,,,0.00,meteohub,2013-03-22 22:20:00,
2013-03-22 18:25:00,36.5,16.2,29.24,North,0,8.0,12.0,43,0.00,,,0.00,meteohub,2013-03-22 22:25:00,
2013-03-22 18:30:00,36.1,16.3,29.24,NW,315,11.0,11.0,44,0.00,,,0.00,meteohub,2013-03-22 22:30:00,
2013-03-22 18:35:00,35.6,16.9,29.24,NW,315,7.0,10.0,46,0.00,,,0.00,meteohub,2013-03-22 22:35:00,
2013-03-22 18:40:00,35.2,17.6,29.25,NW,315,18.0,18.0,48,0.00,,,0.00,meteohub,2013-03-22 22:40:00,
2013-03-22 18:45:00,35.1,17.8,29.25,NW,315,6.0,18.0,49,0.00,,,0.00,meteohub,2013-03-22 22:45:00,
2013-03-22 18:50:00,34.7,17.4,29.25,West,270,9.0,18.0,49,0.00,,,0.00,meteohub,2013-03-22 22:50:00,
2013-03-22 18:55:00,34.5,17.8,29.25,NW,315,11.0,18.0,50,0.00,,,0.00,meteohub,2013-03-22 22:55:00,
2013-03-22 19:00:00,34.5,18.3,29.25,NW,315,11.0,11.0,51,0.00,,,0.00,meteohub,2013-03-22 23:00:00,
2013-03-22 19:05:00,34.3,18.5,29.25,West,270,17.0,17.0,52,0.00,,,0.00,meteohub,2013-03-22 23:05:00,
2013-03-22 19:10:00,34.2,18.3,29.26,West,270,11.0,18.0,52,0.00,,,0.00,meteohub,2013-03-22 23:10:00,
2013-03-22 19:16:00,34.0,18.1,29.26,North,0,8.0,18.0,52,0.00,,,0.00,meteohub,2013-03-22 23:16:00,
2013-03-22 19:21:00,34.0,18.1,29.26,NW,315,11.0,17.0,52,0.00,,,0.00,meteohub,2013-03-22 23:21:00,
2013-03-22 19:26:00,34.2,18.9,29.26,WNW,293,5.0,16.0,53,0.00,,,0.00,meteohub,2013-03-22 23:26:00,
2013-03-22 19:31:00,34.0,18.7,29.26,West,270,8.0,16.0,53,0.00,,,0.00,meteohub,2013-03-22 23:31:00,
2013-03-22 19:36:00,34.0,18.7,29.26,West,270,5.0,16.0,53,0.00,,,0.00,meteohub,2013-03-22 23:36:00,
2013-03-22 19:41:00,33.8,18.0,29.26,North,0,9.0,15.0,52,0.00,,,0.00,meteohub,2013-03-22 23:41:00,
2013-03-22 19:47:00,33.8,18.5,29.27,NW,315,8.0,13.0,53,0.00,,,0.00,meteohub,2013-03-22 23:47:00,
2013-03-22 19:52:00,33.8,18.0,29.27,West,270,9.0,13.0,52,0.00,,,0.00,meteohub,2013-03-22 23:52:00,
2013-03-22 19:57:00,33.8,18.0,29.27,WNW,293,7.0,13.0,52,0.00,,,0.00,meteohub,2013-03-22 23:57:00,
2013-03-22 20:02:00,33.8,17.6,29.27,West,270,4.0,13.0,51,0.00,,,0.00,meteohub,2013-03-23 00:02:00,
2013-03-22 20:07:00,33.8,17.6,29.28,NW,315,11.0,13.0,51,0.00,,,0.00,meteohub,2013-03-23 00:07:00,
2013-03-22 20:12:00,33.8,17.6,29.28,NW,315,7.0,14.0,51,0.00,,,0.00,meteohub,2013-03-23 00:12:00,
2013-03-22 20:17:00,33.6,17.8,29.28,North,0,2.0,14.0,52,0.00,,,0.00,meteohub,2013-03-23 00:17:00,
2013-03-22 20:22:00,33.3,17.6,29.28,North,0,7.0,14.0,52,0.00,,,0.00,meteohub,2013-03-23 00:22:00,
2013-03-22 20:27:00,33.3,17.1,29.28,NE,45,4.0,11.0,51,0.00,,,0.00,meteohub,2013-03-23 00:27:00,
2013-03-22 20:32:00,33.1,16.9,29.28,NW,315,9.0,11.0,51,0.00,,,0.00,meteohub,2013-03-23 00:32:00,
2013-03-22 20:37:00,32.9,17.2,29.28,NW,315,4.0,11.0,52,0.00,,,0.00,meteohub,2013-03-23 00:37:00,
2013-03-22 20:42:00,32.7,17.4,29.28,West,270,7.0,9.0,53,0.00,,,0.00,meteohub,2013-03-23 00:42:00,
2013-03-22 20:47:00,32.5,17.2,29.28,NW,315,6.0,11.0,53,0.00,,,0.00,meteohub,2013-03-23 00:47:00,
2013-03-22 20:52:00,32.5,17.2,29.29,SW,225,5.0,11.0,53,0.00,,,0.00,meteohub,2013-03-23 00:52:00,
2013-03-22 20:57:00,32.4,17.1,29.28,NW,315,7.0,14.0,53,0.00,,,0.00,meteohub,2013-03-23 00:57:00,
2013-03-22 21:02:00,32.4,17.1,29.28,North,0,8.0,14.0,53,0.00,,,0.00,meteohub,2013-03-23 01:02:00,
2013-03-22 21:08:00,32.2,17.1,29.28,NW,315,11.0,14.0,53,0.00,,,0.00,meteohub,2013-03-23 01:08:00,
2013-03-22 21:13:00,32.0,16.9,29.28,NW,315,6.0,11.0,53,0.00,,,0.00,meteohub,2013-03-23 01:13:00,
2013-03-22 21:18:00,32.0,16.9,29.29,WNW,293,5.0,11.0,53,0.00,,,0.00,meteohub,2013-03-23 01:18:00,
2013-03-22 21:23:00,31.8,17.1,29.29,NW,315,7.0,11.0,54,0.00,,,0.00,meteohub,2013-03-23 01:23:00,
2013-03-22 21:28:00,31.8,17.1,29.28,NW,315,8.0,9.0,54,0.00,,,0.00,meteohub,2013-03-23 01:28:00,
2013-03-22 21:33:00,31.8,17.1,29.28,NW,315,6.0,11.0,54,0.00,,,0.00,meteohub,2013-03-23 01:33:00,
2013-03-22 21:38:00,31.6,16.9,29.29,West,270,12.0,12.0,54,0.00,,,0.00,meteohub,2013-03-23 01:38:00,
2013-03-22 21:43:00,31.6,16.9,29.29,SW,225,8.0,12.0,54,0.00,,,0.00,meteohub,2013-03-23 01:43:00,
2013-03-22 21:48:00,31.6,16.5,29.29,SW,225,13.0,14.0,53,0.00,,,0.00,meteohub,2013-03-23 01:48:00,
2013-03-22 21:54:00,31.6,16.0,29.30,West,270,9.0,14.0,52,0.00,,,0.00,meteohub,2013-03-23 01:54:00,
2013-03-22 21:59:00,31.5,15.4,29.29,NW,315,11.0,16.0,51,0.00,,,0.00,meteohub,2013-03-23 01:59:00,
2013-03-22 22:04:00,31.3,15.3,29.30,West,270,14.0,16.0,51,0.00,,,0.00,meteohub,2013-03-23 02:04:00,
2013-03-22 22:09:00,31.3,15.3,29.30,West,270,9.0,17.0,51,0.00,,,0.00,meteohub,2013-03-23 02:09:00,
2013-03-22 22:14:00,31.1,15.1,29.30,NW,315,17.0,17.0,51,0.00,,,0.00,meteohub,2013-03-23 02:14:00,
2013-03-22 22:19:00,31.1,15.1,29.30,NW,315,5.0,18.0,51,0.00,,,0.00,meteohub,2013-03-23 02:19:00,
2013-03-22 22:24:00,30.7,15.3,29.30,North,0,4.0,18.0,52,0.00,,,0.00,meteohub,2013-03-23 02:24:00,
2013-03-22 22:29:00,30.6,15.1,29.30,NW,315,8.0,18.0,52,0.00,,,0.00,meteohub,2013-03-23 02:29:00,
2013-03-22 22:35:00,30.6,15.1,29.30,NW,315,11.0,15.0,52,0.00,,,0.00,meteohub,2013-03-23 02:35:00,
2013-03-22 22:40:00,30.6,15.1,29.30,NW,315,8.0,15.0,52,0.00,,,0.00,meteohub,2013-03-23 02:40:00,
2013-03-22 22:45:00,30.4,15.3,29.30,NW,315,6.0,11.0,53,0.00,,,0.00,meteohub,2013-03-23 02:45:00,
2013-03-22 22:50:00,30.2,15.1,29.30,NW,315,8.0,11.0,53,0.00,,,0.00,meteohub,2013-03-23 02:50:00,
2013-03-22 22:55:00,30.2,15.1,29.29,NE,45,8.0,11.0,53,0.00,,,0.00,meteohub,2013-03-23 02:55:00,
2013-03-22 23:00:00,30.2,15.1,29.30,North,0,5.0,15.0,53,0.00,,,0.00,meteohub,2013-03-23 03:00:00,
2013-03-22 23:05:00,30.2,15.1,29.29,North,0,8.0,15.0,53,0.00,,,0.00,meteohub,2013-03-23 03:05:00,
2013-03-22 23:10:00,30.2,15.1,29.30,West,270,8.0,15.0,53,0.00,,,0.00,meteohub,2013-03-23 03:10:00,
2013-03-22 23:15:00,30.0,15.8,29.30,NW,315,7.0,9.0,55,0.00,,,0.00,meteohub,2013-03-23 03:15:00,
2013-03-22 23:21:00,29.8,15.6,29.30,North,0,9.0,9.0,55,0.00,,,0.00,meteohub,2013-03-23 03:21:00,
2013-03-22 23:26:00,30.0,15.8,29.30,NW,315,8.0,11.0,55,0.00,,,0.00,meteohub,2013-03-23 03:26:00,
2013-03-22 23:31:00,30.0,15.8,29.29,NW,315,8.0,12.0,55,0.00,,,0.00,meteohub,2013-03-23 03:31:00,
2013-03-22 23:36:00,30.0,15.8,29.30,NW,315,8.0,16.0,55,0.00,,,0.00,meteohub,2013-03-23 03:36:00,
2013-03-22 23:41:00,29.8,15.6,29.30,North,0,9.0,16.0,55,0.00,,,0.00,meteohub,2013-03-23 03:41:00,
2013-03-22 23:46:00,30.0,15.8,29.29,NW,315,11.0,16.0,55,0.00,,,0.00,meteohub,2013-03-23 03:46:00,
2013-03-22 23:51:00,29.8,15.6,29.30,West,270,7.0,15.0,55,0.00,,,0.00,meteohub,2013-03-23 03:51:00,
2013-03-22 23:56:00,29.8,15.6,29.29,NW,315,8.0,16.0,55,0.00,,,0.00,meteohub,2013-03-23 03:56:00,